Powrót do katalogu

STARLINK-36784

AktywnyŁącznośćVLEO
NORAD 67877·PAYLOAD·🇺🇸 United States

Wystrzelony Feb 20, 2026 z Vandenberg Space Force Base

Loading…

Następne Przeloty (najbliższe 24 godziny)

TLE

ŚwieżeSource: CelesTrak SupGP

Epoka: Sep 15, 2026, 03:25 UTC

1 67877C 26034AD  26258.14284722  .00000394  00000+0  11643-4 0  2585
2 67877  53.1590  42.8835 0000850  84.0087 193.6081 15.34370014    17

Śledź STARLINK-36784 w czasie rzeczywistym z AllMySat

Download on the App Store